Location: ????? ??????
(37.8317°N, 23.8750°E)
Time: 13:04:20
(UTC+00:00)

Okean-O - Pass Details

Date: 20 January 2021
Orbit: 638 x 641 km, 98.2° (Epoch: 03 March)

Event Time Altitude Azimuth Distance (km) Brightness Sun altitude
Rises 16:27:21 0° 142° (SE) 2,932 5.8 -10.5°
Reaches altitude 10° 16:29:43 10° 131° (SE) 2,028 4.9 -11.0°
Maximum altitude 16:33:36 31° 70° (ENE) 1,133 3.3 -11.7°
Drops below altitude 10° 16:37:30 10° 9° (N) 2,041 5.0 -12.4°
Sets 16:39:53 0° 359° (N) 2,954 5.9 -12.9°
